[[{"header":{"parameterUnit":"m.s-1","parameterCategory":1,"la1":30.2991,"la2":30.254,"lo1":-89.0895,"lo2":-89.0444,"dy":0.0017,"dx":0.0017,"nx":28,"ny":28,"refTime":"2023-11-17T03:00:00:Z","depth":0,"parameterNumber":2,"parameterNumberName":"U-component_of_WINDS"},"data":[0,0,0,0,0,0,0,0,0,0,0,0,0,0,0,0,0,0,0,0,0,0,0,0,0,0,0,0,0,0,0,0,0,0,0,0,0,0,0,0,0,0,0,0,0,0,0,0,0,0,0,0,0,0,0,0,0,0,0.4419,0.4419,0,0.4423,0.4423,0.4423,0.4396,0.4395,0.4394,0.4394,0.4399,0.44,0.4401,0,0,0,0,0,0,0,0,0,0,0,0,0,0.4391,0.4392,0.4419,0.4419,0.4419,0.4423,0.4423,0.4424,0.4396,0.4395,0.4394,0.4393,0.4399,0.44,0.4401,0,0,0,0,0,0,0,0,0,0,0,0,0,0.44,0.4392,0.4419,0.4406,0.4405,0.4423,0.4423,0.4424,0.4396,0.4395,0.4394,0.4393,0.4398,0.44,0.4401,0.4433,0,0,0.4405,0.4406,0,0,0,0,0,0,0,0,0.44,0.4401,0.4408,0.4407,0.4406,0.4408,0.4415,0.4427,0.4396,0.44,0.4393,0.4392,0.4403,0.4404,0.4407,0.4433,0.4433,0.4405,0.4406,0.4406,0.4407,0,0,0,0,0,0,0,0.4399,0.4401,0.4421,0.4408,0.4407,0.4401,0.4401,0.4417,0.4408,0.4399,0.4397,0.4398,0.4402,0.4406,0.4407,0.4433,0.4405,0.4406,0.4407,0.4408,0.4488,0.449,0,0,0,0,0,0,0.44,0.44,0.4421,0.4421,0.44,0.4403,0.4403,0.4408,0.4408,0.4406,0.4399,0.4397,0.4404,0.4406,0.4407,0.4446,0.4406,0.4408,0.4408,0.4487,0.4489,0.449,0,0,0,0,0,0,0.4399,0.4402,0.4421,0.441,0.4412,0.4404,0.4411,0.4409,0.4413,0.4407,0.4406,0.4404,0.4404,0.4405,0.4427,0.4446,0.4408,0.441,0.4485,0.4488,0.4489,0.4524,0,0,0,0,0,0,0.4399,0.4402,0.4413,0.4411,0.4413,0.444,0.4412,0.441,0.4415,0.4412,0.4412,0.4411,0.4403,0.4425,0.4429,0.4447,0.4411,0.4484,0.4486,0.4489,0.4521,0.4527,0.4531,0,0,0,0,0,0.4398,0.4422,0.4413,0.4416,0.4426,0.4441,0.4442,0.4431,0.4417,0.4429,0.4426,0.4411,0.4443,0.4428,0.4431,0.4451,0.4483,0.4486,0.4489,0.4518,0.4525,0.4531,0,0,0,0,0,0,0.4426,0.4421,0.4412,0.4436,0.4439,0.4436,0.445,0.4439,0.4446,0.4443,0.4431,0.4431,0.4456,0.4455,0.4438,0.4483,0.4461,0.4464,0.4482,0.4489,0.4494,0.4494,0.4412,0,0,0,0,0,0.4435,0.4446,0.4442,0.4464,0.4466,0.4458,0.4464,0.4456,0.4458,0.446,0.4458,0.4462,0.4473,0.4481,0.4491,0.4521,0.4522,0.4536,0.4541,0.4546,0.4549,0.4568,0.4575,0.45,0.45,0.45,0,0,0.4454,0.4453,0.4461,0.4469,0.4471,0.4484,0.4459,0.4473,0.4484,0.4462,0.4483,0.4482,0.4486,0.4513,0.4524,0.4513,0.457,0.455,0.4553,0.4554,0.4572,0.4579,0.4585,0.4502,0.4502,0.4502,0,0,0.4495,0.4495,0.4514,0.4516,0.4519,0.4514,0.4519,0.4518,0.4517,0.4538,0.4523,0.4535,0.4554,0.4558,0.4563,0.4609,0.4597,0.4613,0.4641,0.4659,0.4665,0.467,0.4689,0.4695,0.4616,0.4616,0.4616,0,0.4519,0.4537,0.4525,0.4542,0.4547,0.4528,0.4549,0.4552,0.4558,0.4563,0.455,0.4576,0.4577,0.4605,0.4617,0.4621,0.4627,0.4613,0.4665,0.467,0.4675,0.4692,0.4699,0.4618,0.4618,0.4618,0.4618,0,0.4567,0.458,0.4596,0.4603,0.461,0.4628,0.4621,0.4629,0.4621,0.4619,0.4642,0.4642,0.4653,0.4659,0.4651,0.4688,0.4681,0.4667,0.4645,0.4684,0.4701,0.4707,0.4621,0.4621,0.462,0.4619,0,0,0.4625,0.4627,0.4633,0.4637,0.464,0.465,0.4669,0.468,0.4689,0.4694,0.4711,0.4729,0.4717,0.4722,0.4715,0.473,0.477,0.4715,0.4715,0.4726,0.4813,0.4825,0.4833,0.4762,0.4763,0.4764,0.4813,0,0.4667,0.4698,0.4689,0.4721,0.4735,0.4719,0.4735,0.474,0.4738,0.4751,0.4749,0.4763,0.4744,0.4748,0.4763,0.4762,0.4787,0.4758,0.4779,0.478,0.4779,0.4841,0.4852,0.4899,0.482,0.4821,0.4821,0,0.4719,0.4728,0.4761,0.4764,0.477,0.4785,0.4796,0.4807,0.4813,0.4811,0.4818,0.4808,0.4829,0.4806,0.4835,0.4816,0.4824,0.4825,0.4827,0.4829,0.4804,0.4846,0.4913,0.4921,0.4831,0.483,0.4829,0,0.4761,0.478,0.4804,0.4807,0.4811,0.4822,0.4825,0.4829,0.4837,0.4847,0.4853,0.4865,0.4872,0.4882,0.4876,0.486,0.4908,0.4884,0.4908,0.4908,0.4919,0.4918,0.499,0.4922,0.4922,0.4922,0.4922,0,0.4809,0.4831,0.4823,0.4837,0.4862,0.4852,0.4877,0.4878,0.4882,0.4898,0.4884,0.49,0.4891,0.4906,0.4902,0.4928,0.4931,0.4931,0.493,0.4933,0.4933,0.4938,0.4935,0.4924,0.4923,0.4923,0.4923,0,0.4859,0.4854,0.4879,0.4881,0.4883,0.4901,0.4903,0.4918,0.4916,0.4936,0.494,0.4938,0.4955,0.495,0.4968,0.4966,0.5,0.4994,0.4998,0.4997,0.5022,0.502,0.51,0.5111,0.5035,0.5036,0.5036,0,0.4891,0.4907,0.4912,0.4921,0.4925,0.494,0.4948,0.4941,0.495,0.496,0.4974,0.499,0.5002,0.5031,0.5031,0.5046,0.5041,0.5068,0.5043,0.5047,0.5044,0.5044,0.5046,0.5073,0.5074,0.5075,0.5076,0,0.4948,0.4946,0.4958,0.4971,0.4982,0.4991,0.5,0.5009,0.5002,0.5014,0.5031,0.5041,0.5061,0.5078,0.5092,0.5096,0.5086,0.5084,0.509,0.5094,0.5096,0.5097,0.5013,0.5082,0.5081,0.5081,0.508,0.508,0.4991,0.5006,0.5012,0.5028,0.5033,0.5042,0.5057,0.5057,0.5072,0.5087,0.5082,0.5103,0.5111,0.5129,0.5135,0.5152,0.5142,0.5151,0.5153,0.5156,0.516,0.5093,0.5154,0.5154,0.5154,0.5153,0.5153,0,0.5049,0.5053,0.5067,0.508,0.5093,0.5082,0.5092,0.5103,0.5122,0.513,0.5143,0.5165,0.5182,0.5184,0.5201,0.5214,0.521,0.5219,0.5219,0.522,0.5167,0.5161,0.5222,0.5222,0.5222,0.5222,0.5222,0.5222,0.5081,0.5107,0.5105,0.5134,0.5138,0.5158,0.5165,0.5174,0.5181,0.5206,0.522,0.5222,0.5228,0.5246,0.5262,0.5262,0.527,0.5281,0.528,0.523,0.5223,0.5217,0.5211,0.5282,0.5282,0.5331,0.5332,0.5332]},{"header":{"parameterUnit":"m.s-1","parameterCategory":1,"la1":30.2991,"la2":30.254,"lo1":-89.0895,"lo2":-89.0444,"dy":0.0017,"dx":0.0017,"nx":28,"ny":28,"refTime":"2023-11-17T03:00:00:Z","depth":0,"parameterNumber":3,"parameterNumberName":"V-component_of_WINDS"},"data":[0,0,0,0,0,0,0,0,0,0,0,0,0,0,0,0,0,0,0,0,0,0,0,0,0,0,0,0,0,0,0,0,0,0,0,0,0,0,0,0,0,0,0,0,0,0,0,0,0,0,0,0,0,0,0,0,0,0,-2.5132,-2.5133,0,-2.5153,-2.5153,-2.5153,-2.5204,-2.5205,-2.5207,-2.5208,-2.5227,-2.5226,-2.5226,0,0,0,0,0,0,0,0,0,0,0,0,0,-2.5138,-2.5137,-2.5132,-2.5133,-2.5133,-2.5153,-2.5153,-2.5153,-2.5204,-2.5205,-2.5207,-2.5208,-2.5227,-2.5226,-2.5226,0,0,0,0,0,0,0,0,0,0,0,0,0,-2.5144,-2.5137,-2.5132,-2.5161,-2.5163,-2.5153,-2.5153,-2.5153,-2.5204,-2.5206,-2.5207,-2.5209,-2.5227,-2.5226,-2.5226,-2.5189,0,0,-2.5224,-2.5223,0,0,0,0,0,0,0,0,-2.5144,-2.5144,-2.5156,-2.5159,-2.5162,-2.5178,-2.5162,-2.5165,-2.5203,-2.5188,-2.5208,-2.5209,-2.5209,-2.521,-2.521,-2.519,-2.5191,-2.5223,-2.5223,-2.5223,-2.5222,0,0,0,0,0,0,0,-2.5143,-2.5144,-2.514,-2.5156,-2.516,-2.5173,-2.5175,-2.5163,-2.5189,-2.519,-2.5194,-2.5195,-2.5211,-2.5211,-2.5211,-2.5191,-2.5223,-2.5223,-2.5222,-2.5222,-2.5144,-2.5143,0,0,0,0,0,0,-2.5139,-2.5143,-2.514,-2.5141,-2.5157,-2.5171,-2.5174,-2.5171,-2.519,-2.5194,-2.5194,-2.5198,-2.5211,-2.5212,-2.5212,-2.5172,-2.5223,-2.5222,-2.5222,-2.5146,-2.5144,-2.5142,0,0,0,0,0,0,-2.5139,-2.5138,-2.5139,-2.5143,-2.5144,-2.5169,-2.5165,-2.517,-2.517,-2.5193,-2.5198,-2.5189,-2.5213,-2.5213,-2.5195,-2.5173,-2.5222,-2.5221,-2.5148,-2.5145,-2.5143,-2.5091,0,0,0,0,0,0,-2.5139,-2.5138,-2.5124,-2.5142,-2.5144,-2.5121,-2.5164,-2.517,-2.5169,-2.5174,-2.5189,-2.5194,-2.5214,-2.5196,-2.5194,-2.5173,-2.522,-2.515,-2.5147,-2.5144,-2.5094,-2.5087,-2.508,0,0,0,0,0,-2.5139,-2.5107,-2.5123,-2.5122,-2.5127,-2.512,-2.5121,-2.5145,-2.5167,-2.5154,-2.5169,-2.5193,-2.5176,-2.5194,-2.5192,-2.5171,-2.5151,-2.5148,-2.5144,-2.5098,-2.5088,-2.508,0,0,0,0,0,0,-2.5084,-2.511,-2.5128,-2.5101,-2.5108,-2.5129,-2.5112,-2.5134,-2.5134,-2.5139,-2.5169,-2.5172,-2.5151,-2.5159,-2.5178,-2.5138,-2.5168,-2.5164,-2.5133,-2.5124,-2.5117,-2.5116,-2.522,0,0,0,0,0,-2.5069,-2.5061,-2.5084,-2.5059,-2.5062,-2.5086,-2.5084,-2.5103,-2.5111,-2.5114,-2.5127,-2.5134,-2.5131,-2.5128,-2.5126,-2.5096,-2.5101,-2.5081,-2.5073,-2.5067,-2.5064,-2.5051,-2.5043,-2.513,-2.513,-2.513,0,0,-2.5037,-2.5051,-2.5044,-2.5048,-2.5056,-2.5048,-2.5088,-2.5077,-2.5072,-2.5112,-2.5097,-2.5107,-2.5117,-2.5094,-2.5084,-2.51,-2.5041,-2.5063,-2.5058,-2.5057,-2.5047,-2.5038,-2.5031,-2.5128,-2.5128,-2.5129,0,0,-2.4976,-2.4985,-2.4966,-2.4973,-2.4985,-2.5002,-2.4997,-2.5015,-2.5024,-2.501,-2.504,-2.5034,-2.5027,-2.5034,-2.5036,-2.4981,-2.5004,-2.4979,-2.4942,-2.4929,-2.4923,-2.4917,-2.4899,-2.4892,-2.4975,-2.4975,-2.4975,0,-2.4935,-2.4925,-2.4953,-2.4941,-2.4943,-2.498,-2.4962,-2.4968,-2.4978,-2.4978,-2.4996,-2.499,-2.4999,-2.4979,-2.4966,-2.4966,-2.4963,-2.4978,-2.4921,-2.4916,-2.4911,-2.4894,-2.4887,-2.4972,-2.4973,-2.4973,-2.4973,0,-2.4875,-2.4868,-2.4851,-2.4862,-2.4861,-2.4846,-2.4872,-2.4869,-2.4888,-2.4904,-2.4889,-2.4902,-2.4904,-2.4901,-2.4919,-2.4884,-2.4894,-2.4916,-2.4947,-2.4899,-2.4884,-2.4878,-2.4968,-2.4969,-2.497,-2.4971,0,0,-2.4779,-2.4807,-2.48,-2.4807,-2.4824,-2.4819,-2.4806,-2.481,-2.4807,-2.4813,-2.4804,-2.4799,-2.482,-2.4823,-2.4842,-2.4831,-2.4789,-2.4855,-2.4856,-2.4844,-2.4755,-2.4739,-2.4731,-2.4805,-2.4804,-2.4803,-2.4755,0,-2.4723,-2.4703,-2.4729,-2.4704,-2.4699,-2.4736,-2.4725,-2.4735,-2.4749,-2.4747,-2.4763,-2.4759,-2.4787,-2.4789,-2.478,-2.4796,-2.4772,-2.48,-2.4798,-2.4797,-2.4795,-2.4723,-2.4706,-2.466,-2.4749,-2.4748,-2.4747,0,-2.4654,-2.466,-2.4634,-2.4656,-2.4654,-2.4644,-2.4651,-2.4648,-2.4661,-2.4672,-2.4677,-2.4701,-2.4691,-2.4721,-2.4709,-2.4727,-2.4728,-2.4736,-2.4735,-2.4737,-2.477,-2.4724,-2.4645,-2.4639,-2.4738,-2.4738,-2.4739,0,-2.4589,-2.4589,-2.4575,-2.4579,-2.4603,-2.4596,-2.4605,-2.4619,-2.4621,-2.4627,-2.4628,-2.4632,-2.4635,-2.4638,-2.4662,-2.4682,-2.4648,-2.468,-2.4658,-2.4658,-2.465,-2.465,-2.4572,-2.4648,-2.4648,-2.4648,-2.4649,0,-2.4524,-2.4508,-2.4547,-2.4538,-2.4521,-2.4552,-2.4534,-2.4548,-2.4561,-2.4556,-2.4587,-2.4582,-2.4614,-2.4613,-2.4632,-2.462,-2.4621,-2.4631,-2.4636,-2.4629,-2.4628,-2.463,-2.4634,-2.4647,-2.4647,-2.4647,-2.4648,0,-2.4448,-2.4473,-2.4461,-2.4485,-2.4491,-2.4478,-2.45,-2.4493,-2.4511,-2.4504,-2.4504,-2.4532,-2.4532,-2.4557,-2.4562,-2.4575,-2.4556,-2.4567,-2.4552,-2.4556,-2.4534,-2.4537,-2.4455,-2.4447,-2.4527,-2.4527,-2.4526,0,-2.4406,-2.4395,-2.4419,-2.4419,-2.4427,-2.4426,-2.4428,-2.4458,-2.4459,-2.4474,-2.4466,-2.4469,-2.4474,-2.4473,-2.4493,-2.4498,-2.451,-2.4481,-2.4511,-2.4504,-2.4512,-2.4513,-2.4513,-2.4475,-2.4474,-2.4473,-2.4472,0,-2.4329,-2.4343,-2.4345,-2.4352,-2.4355,-2.4362,-2.437,-2.4368,-2.4401,-2.4401,-2.4403,-2.4406,-2.4413,-2.4416,-2.4425,-2.4436,-2.446,-2.4463,-2.4459,-2.4452,-2.4444,-2.445,-2.4537,-2.4465,-2.4466,-2.4466,-2.4467,-2.4467,-2.427,-2.4263,-2.428,-2.4282,-2.4292,-2.4301,-2.4297,-2.4315,-2.4316,-2.4325,-2.4342,-2.4342,-2.4357,-2.4372,-2.438,-2.4381,-2.4395,-2.4388,-2.4387,-2.4385,-2.4382,-2.4444,-2.4382,-2.4382,-2.4383,-2.4383,-2.4383,0,-2.4197,-2.421,-2.4212,-2.4224,-2.4226,-2.425,-2.4262,-2.4262,-2.4262,-2.4274,-2.4278,-2.4281,-2.4285,-2.4307,-2.4314,-2.431,-2.4322,-2.4311,-2.4312,-2.4315,-2.4367,-2.4371,-2.4302,-2.4302,-2.4302,-2.4302,-2.4302,-2.4302,-2.4159,-2.4148,-2.4164,-2.416,-2.4174,-2.4174,-2.4179,-2.4188,-2.4198,-2.42,-2.4204,-2.4219,-2.4236,-2.4244,-2.425,-2.4256,-2.4258,-2.4244,-2.4254,-2.4303,-2.4311,-2.4318,-2.4322,-2.4243,-2.4243,-2.4202,-2.4201,-2.4201]}]]